GW6106 Weather Reports


time (UTC)temp
C
wind
direction
speed
KPH
gust
KPH
rain 1hr
cm
rain 24hr
cm
rain mn
cm
humidity
%
barometer
mb
20260507030850 5 190 4.8 6.4 0.00 0.00 0.74 91 1011.0
20260507030350 5 202 4.8 6.4 0.00 0.00 0.74 90 1011.0
20260507025850 5 194 3.2 4.8 0.00 0.00 0.74 90 1011.0
20260507025350 5 189 3.2 3.2 0.00 0.00 0.74 90 1011.0
20260507024849 5 228 1.6 3.2 0.00 0.00 0.74 90 1011.0
20260507024349 5 215 3.2 4.8 0.00 0.00 0.74 90 1011.0
20260507023850 5 229 3.2 4.8 0.00 0.00 0.74 90 1011.0
20260507023349 5 192 1.6 1.6 0.00 0.00 0.74 90 1011.0
20260507022849 5 211 3.2 6.4 0.00 0.00 0.74 90 1011.0
20260507022349 5 223 1.6 3.2 0.00 0.00 0.74 89 1011.0
20260507021849 5 242 3.2 3.2 0.00 0.00 0.74 89 1011.0
20260507021349 5 228 6.4 6.4 0.00 0.00 0.74 89 1011.0
20260507020849 5 212 4.8 4.8 0.00 0.00 0.74 89 1011.0
20260507020350 5 238 6.4 6.4 0.00 0.00 0.74 89 1011.0
20260507015850 5 227 4.8 4.8 0.00 0.00 0.74 89 1011.0
20260507015349 5 225 4.8 6.4 0.00 0.00 0.74 89 1011.0
20260507014849 5 233 6.4 6.4 0.00 0.00 0.74 89 1011.0
20260507014350 5 233 4.8 4.8 0.00 0.00 0.74 89 1011.0
20260507013849 5 232 4.8 4.8 0.00 0.00 0.74 90 1011.0
20260507013349 5 244 3.2 3.2 0.00 0.00 0.74 90 1011.0
20260507012849 5 250 6.4 6.4 0.00 0.00 0.74 90 1011.0
20260507012349 5 252 6.4 9.7 0.00 0.00 0.74 90 1011.0
20260507011849 5 241 3.2 3.2 0.00 0.00 0.74 90 1011.0
20260507011349 5 238 4.8 4.8 0.00 0.00 0.74 90 1011.0
20260507010850 5 216 3.2 4.8 0.00 0.00 0.74 91 1011.0
20260507010350 5 278 3.2 4.8 0.00 0.00 0.74 91 1011.0
20260507005849 5 238 3.2 6.4 0.00 0.00 0.74 91 1011.0
20260507005352 5 250 6.4 9.7 0.00 0.00 0.74 91 1011.0
20260507004849 5 241 6.4 6.4 0.00 0.00 0.74 91 1011.0
20260507004351 5 248 6.4 9.7 0.00 0.00 0.74 90 1011.0
20260507003850 5 266 8.0 9.7 0.00 0.00 0.74 90 1011.0
20260507003350 6 259 6.4 9.7 0.00 0.00 0.74 89 1011.0
20260507002849 6 235 6.4 8.0 0.00 0.00 0.74 89 1011.0
20260507002350 6 251 6.4 9.7 0.00 0.00 0.74 89 1011.0
20260507001850 6 258 8.0 9.7 0.00 0.00 0.74 88 1011.0
20260507001349 6 257 6.4 9.7 0.00 0.00 0.74 88 1010.0
20260507000852 6 261 8.0 9.7 0.00 0.00 0.74 88 1010.0
20260507000350 7 261 8.0 11.3 0.00 0.00 0.74 88 1010.0
20260506235850 7 259 9.7 11.3 0.00 0.00 0.74 88 1010.0
20260506235349 7 250 6.4 8.0 0.00 0.00 0.74 87 1010.0
20260506234850 7 266 4.8 4.8 0.00 0.00 0.74 86 1010.0
20260506234350 7 286 3.2 3.2 0.00 0.00 0.74 86 1010.0
20260506233849 7 319 1.6 1.6 0.00 0.00 0.74 86 1010.0
20260506233349 7 268 1.6 3.2 0.00 0.00 0.74 85 1010.0
20260506232849 7 0 0.0 0.0 0.00 0.00 0.74 85 1010.0
20260506232350 7 44 0.0 0.0 0.00 0.00 0.74 85 1010.0
20260506231849 7 31 1.6 3.2 0.00 0.00 0.74 85 1010.0
20260506231349 7 317 1.6 3.2 0.00 0.00 0.74 84 1010.0
20260506230851 7 280 1.6 3.2 0.00 0.00 0.74 84 1010.0
20260506230350 7 346 1.6 3.2 0.00 0.00 0.74 83 1010.0
20260506225849 8 323 1.6 3.2 0.00 0.00 0.74 82 1010.0
20260506225350 8 262 3.2 3.2 0.00 0.00 0.74 83 1010.0
20260506224849 8 16 0.0 1.6 0.00 0.00 0.74 82 1010.0
20260506224349 8 313 3.2 3.2 0.00 0.00 0.74 82 1010.0
20260506223849 8 103 0.0 0.0 0.00 0.00 0.74 82 1010.0
20260506223350 8 32 1.6 1.6 0.00 0.00 0.74 82 1010.0
20260506222850 8 355 1.6 3.2 0.00 0.00 0.74 82 1010.0
20260506222349 8 316 1.6 3.2 0.00 0.00 0.74 82 1010.0
20260506221850 8 42 1.6 1.6 0.00 0.00 0.74 82 1010.0
20260506221350 8 272 1.6 3.2 0.00 0.00 0.74 82 1010.0
20260506220849 8 10 1.6 3.2 0.00 0.00 0.74 82 1010.0
20260506220350 8 92 1.6 1.6 0.00 0.00 0.74 83 1010.0
20260506215849 8 78 1.6 3.2 0.00 0.00 0.74 83 1010.0
20260506215349 8 344 3.2 3.2 0.00 0.00 0.74 83 1010.0
20260506214850 8 7 3.2 4.8 0.00 0.00 0.74 82 1010.0
20260506214349 8 16 1.6 1.6 0.00 0.00 0.74 83 1010.0
20260506213851 8 175 1.6 3.2 0.00 0.00 0.74 83 1010.0
20260506213349 8 349 1.6 3.2 0.00 0.00 0.74 83 1010.0
20260506212850 8 295 3.2 6.4 0.00 0.00 0.74 83 1010.0
20260506212349 8 325 3.2 3.2 0.00 0.00 0.74 84 1010.0
20260506211849 8 335 8.0 11.3 0.00 0.00 0.74 82 1010.0
20260506211349 8 312 3.2 4.8 0.00 0.00 0.74 82 1009.0
20260506210849 8 353 6.4 8.0 0.00 0.00 0.74 81 1009.0
20260506210349 8 339 6.4 9.7 0.00 0.00 0.74 81 1009.0
20260506205849 8 340 8.0 9.7 0.00 0.00 0.74 82 1009.0
20260506205349 8 1 3.2 4.8 0.00 0.00 0.74 82 1009.0
20260506204850 8 19 6.4 8.0 0.00 0.00 0.74 83 1009.0
20260506204349 8 349 3.2 4.8 0.00 0.00 0.74 83 1009.0
20260506203850 8 336 8.0 9.7 0.00 0.00 0.74 82 1009.0
20260506203349 8 352 3.2 3.2 0.00 0.00 0.74 83 1009.0
20260506202849 8 27 3.2 3.2 0.00 0.00 0.74 83 1009.0
20260506202350 8 342 3.2 4.8 0.00 0.00 0.74 83 1009.0
20260506201849 7 347 4.8 8.0 0.00 0.00 0.74 84 1009.0
20260506201350 7 351 8.0 8.0 0.00 0.00 0.74 84 1009.0
20260506200849 7 32 4.8 8.0 0.00 0.00 0.74 83 1009.0
20260506200349 7 11 4.8 6.4 0.00 0.00 0.74 84 1009.0
20260506195849 7 16 3.2 4.8 0.00 0.00 0.74 84 1009.0
20260506195349 7 331 4.8 6.4 0.00 0.00 0.74 84 1009.0
20260506194849 7 328 3.2 4.8 0.00 0.00 0.74 85 1009.0
20260506194349 7 0 3.2 4.8 0.00 0.00 0.74 85 1009.0
20260506193849 8 21 3.2 4.8 0.00 0.00 0.74 85 1009.0
20260506193349 7 44 6.4 9.7 0.00 0.00 0.74 85 1009.0
20260506192850 7 353 6.4 8.0 0.00 0.00 0.74 86 1009.0
20260506192349 7 8 6.4 9.7 0.00 0.00 0.74 87 1009.0
20260506191850 7 3 6.4 11.3 0.00 0.00 0.74 87 1009.0
20260506191350 7 17 6.4 9.7 0.00 0.00 0.74 87 1009.0
20260506190849 7 6 6.4 8.0 0.00 0.00 0.74 87 1009.0
20260506190349 7 22 8.0 11.3 0.00 0.00 0.74 88 1009.0
20260506185850 7 9 6.4 8.0 0.00 0.00 0.74 88 1009.0
20260506185349 7 347 8.0 9.7 0.00 0.00 0.74 88 1009.0
20260506184850 7 8 3.2 4.8 0.00 0.00 0.74 88 1009.0
20260506184349 7 18 11.3 14.5 0.00 0.00 0.74 87 1009.0
20260506183852 7 7 8.0 11.3 0.00 0.00 0.74 88 1009.0
20260506183350 7 8 11.3 12.9 0.00 0.00 0.74 87 1009.0
20260506182849 7 0 3.2 6.4 0.00 0.00 0.74 88 1009.0
20260506182350 7 23 8.0 8.0 0.00 0.00 0.74 87 1009.0
20260506181850 7 348 9.7 12.9 0.00 0.00 0.74 87 1009.0
20260506181350 7 16 8.0 11.3 0.00 0.00 0.74 87 1009.0
20260506180849 7 27 8.0 11.3 0.00 0.00 0.74 86 1009.0
20260506180349 7 335 8.0 12.9 0.00 0.00 0.74 86 1008.0
20260506175850 7 41 9.7 14.5 0.00 0.00 0.74 87 1008.0
20260506175350 7 25 6.4 11.3 0.00 0.00 0.74 87 1008.0
20260506174850 7 49 11.3 16.1 0.00 0.00 0.74 87 1008.0
20260506174349 7 43 11.3 16.1 0.00 0.00 0.74 87 1008.0
20260506173849 7 15 8.0 9.7 0.00 0.00 0.74 87 1008.0
20260506173349 7 0 9.7 14.5 0.00 0.00 0.74 87 1008.0
20260506172849 7 33 8.0 11.3 0.00 0.00 0.74 87 1008.0
20260506172350 7 48 12.9 19.3 0.00 0.00 0.74 88 1008.0
20260506171850 7 10 6.4 12.9 0.00 0.00 0.74 89 1008.0
20260506171349 7 21 8.0 12.9 0.00 0.00 0.74 89 1008.0
20260506170850 7 44 8.0 9.7 0.00 0.00 0.74 89 1008.0
20260506170350 7 11 11.3 14.5 0.00 0.00 0.71 89 1008.0
20260506165849 7 47 9.7 16.1 0.00 0.00 0.71 90 1008.0
20260506165350 7 17 9.7 14.5 0.00 0.00 0.71 90 1008.0
20260506164849 7 352 6.4 11.3 0.00 0.00 0.71 90 1008.0
20260506164351 7 30 8.0 11.3 0.00 0.00 0.71 90 1008.0
20260506163850 7 17 11.3 14.5 0.00 0.00 0.71 90 1008.0
20260506163351 7 13 8.0 14.5 0.00 0.00 0.71 90 1008.0
20260506162850 7 23 9.7 14.5 0.00 0.00 0.71 90 1008.0
20260506162349 7 26 11.3 14.5 0.00 0.00 0.76 90 1008.0
20260506161850 7 14 8.0 11.3 0.00 0.00 0.76 91 1008.0
20260506161349 7 12 14.5 17.7 0.00 0.00 0.76 90 1008.0
20260506160850 7 22 8.0 11.3 0.00 0.00 0.76 90 1009.0
20260506160350 7 21 4.8 8.0 0.00 0.00 0.74 91 1009.0
20260506155850 6 28 9.7 14.5 0.00 0.00 0.74 91 1009.0
20260506155349 6 43 6.4 8.0 0.03 0.00 0.74 91 1009.0
20260506154850 6 16 9.7 12.9 0.05 0.00 0.71 90 1009.0
20260506154349 6 28 9.7 14.5 0.03 0.00 0.71 90 1009.0
20260506153849 7 13 8.0 11.3 0.18 0.00 0.69 89 1009.0
20260506153349 7 29 4.8 6.4 0.03 0.00 0.69 88 1009.0
20260506152849 7 15 4.8 8.0 0.00 0.00 0.69 87 1009.0
20260506152349 7 43 9.7 12.9 0.00 0.00 0.69 86 1009.0
20260506151849 7 50 11.3 14.5 0.00 0.00 0.69 87 1009.0
20260506151350 7 40 12.9 17.7 0.00 0.00 0.69 87 1008.0
20260506150850 7 4 9.7 12.9 0.00 0.00 0.69 87 1008.0
20260506150350 7 30 6.4 8.0 0.00 0.00 0.69 87 1008.0
20260506145850 7 21 8.0 11.3 0.00 0.00 0.69 87 1008.0
20260506145349 7 25 9.7 14.5 0.00 0.00 0.69 87 1008.0
20260506144850 6 51 16.1 20.9 0.03 0.00 0.66 87 1008.0
20260506144350 6 45 12.9 19.3 0.00 0.00 0.66 88 1008.0
20260506143850 6 49 12.9 20.9 0.00 0.00 0.66 89 1008.0
20260506143349 6 54 11.3 16.1 0.00 0.00 0.66 89 1008.0
20260506142850 6 46 8.0 9.7 0.03 0.00 0.66 89 1008.0
20260506142350 6 10 8.0 9.7 0.00 0.00 0.69 89 1008.0
20260506141849 6 29 11.3 20.9 0.00 0.00 0.69 89 1008.0
20260506141349 6 37 9.7 11.3 0.00 0.00 0.69 89 1008.0
20260506140849 6 50 16.1 20.9 0.00 0.00 0.69 88 1008.0
20260506140350 6 45 9.7 11.3 0.00 0.00 0.64 89 1008.0
20260506135850 6 46 14.5 17.7 0.03 0.00 0.64 88 1008.0
20260506135350 6 48 8.0 16.1 0.03 0.00 0.64 89 1009.0
20260506134850 6 36 8.0 9.7 0.05 0.00 0.64 89 1009.0
20260506134349 6 49 8.0 11.3 0.03 0.00 0.64 89 1009.0
20260506133849 6 42 12.9 14.5 0.03 0.00 0.64 89 1008.0
20260506133349 6 34 8.0 11.3 0.03 0.00 0.61 89 1009.0
20260506132850 6 47 12.9 16.1 0.03 0.00 0.61 89 1009.0
20260506132349 6 35 12.9 17.7 0.00 0.00 0.64 89 1008.0
20260506131849 6 54 6.4 9.7 0.00 0.00 0.64 89 1009.0
20260506131350 6 59 9.7 9.7 0.00 0.00 0.64 89 1008.0
20260506130849 6 35 11.3 14.5 0.00 0.00 0.64 89 1008.0
20260506130352 6 40 12.9 17.7 0.00 0.00 0.64 89 1008.0
20260506125849 6 31 11.3 16.1 0.00 0.00 0.64 90 1009.0
20260506125350 6 52 8.0 9.7 0.03 0.00 0.64 90 1009.0
20260506124850 6 44 9.7 12.9 0.00 0.00 0.61 90 1009.0
20260506124350 6 29 9.7 12.9 0.00 0.00 0.61 90 1009.0
20260506123849 6 23 9.7 12.9 0.00 0.00 0.61 90 1009.0
20260506123349 6 47 6.4 9.7 0.00 0.00 0.61 90 1009.0
20260506122849 6 32 8.0 9.7 0.03 0.00 0.61 91 1009.0
20260506122349 6 30 8.0 12.9 0.05 0.00 0.64 91 1009.0
20260506121849 6 51 11.3 14.5 0.00 0.00 0.61 92 1008.0
20260506121350 6 47 14.5 20.9 0.00 0.00 0.61 92 1008.0
20260506120854 6 46 12.9 17.7 0.05 0.00 0.61 92 1008.0
20260506120350 6 45 6.4 9.7 0.00 0.00 0.58 92 1008.0
20260506115849 6 34 9.7 11.3 0.03 0.00 0.58 92 1009.0
20260506115349 6 40 6.4 6.4 0.00 0.00 0.58 92 1009.0
20260506114849 6 26 4.8 6.4 0.00 0.00 0.58 91 1009.0
20260506114349 6 37 6.4 9.7 0.03 0.00 0.58 91 1009.0
20260506113850 6 24 6.4 9.7 0.03 0.00 0.58 91 1009.0
20260506113350 6 51 6.4 8.0 0.03 0.00 0.56 91 1009.0
20260506112849 6 34 6.4 8.0 0.05 0.00 0.56 91 1009.0
20260506112349 6 27 4.8 6.4 0.10 0.00 0.58 91 1009.0
20260506111849 6 46 6.4 8.0 0.08 0.00 0.56 91 1009.0
20260506111350 6 27 4.8 6.4 0.10 0.00 0.56 91 1009.0
20260506110849 6 35 8.0 11.3 0.05 0.00 0.53 91 1009.0
20260506110349 6 23 4.8 6.4 0.05 0.00 0.53 91 1009.0
20260506105849 6 30 8.0 12.9 0.08 0.00 0.51 91 1009.0
20260506105349 6 19 3.2 4.8 0.00 0.00 0.51 91 1009.0
20260506104851 6 39 6.4 8.0 0.00 0.00 0.51 91 1009.0
20260506104350 6 50 6.4 8.0 0.03 0.00 0.51 91 1009.0
20260506103849 6 41 8.0 11.3 0.05 0.00 0.48 91 1009.0
20260506103349 6 42 6.4 8.0 0.00 0.00 0.48 92 1009.0
20260506102849 6 48 6.4 11.3 0.03 0.00 0.46 92 1009.0
20260506102350 6 16 8.0 9.7 0.03 0.00 0.48 91 1009.0
20260506101850 6 52 9.7 9.7 0.08 0.00 0.48 91 1009.0
20260506101350 6 43 8.0 9.7 0.23 0.00 0.46 91 1009.0
20260506100849 6 23 4.8 6.4 0.51 0.00 0.43 91 1009.0
20260506100349 6 28 3.2 3.2 0.43 0.00 0.38 91 1009.0
20260506095849 6 39 3.2 3.2 0.15 0.00 0.36 91 1009.0
20260506095349 6 50 3.2 4.8 0.25 0.00 0.36 91 1009.0
20260506094849 6 56 4.8 6.4 0.15 0.00 0.33 91 1009.0
20260506094349 6 60 3.2 4.8 0.05 0.00 0.30 90 1009.0
20260506093849 6 48 4.8 6.4 0.03 0.00 0.30 90 1009.0
20260506093349 6 11 3.2 3.2 0.03 0.00 0.28 90 1009.0
20260506092849 6 65 3.2 3.2 0.03 0.00 0.28 90 1009.0
20260506092349 6 65 3.2 4.8 0.08 0.00 0.30 90 1009.0
20260506091850 6 81 3.2 4.8 0.08 0.00 0.28 90 1009.0
20260506091349 6 89 3.2 4.8 0.03 0.00 0.28 90 1009.0
20260506090849 6 85 4.8 4.8 0.03 0.00 0.28 90 1009.0
20260506090349 6 61 4.8 4.8 0.03 0.00 0.25 90 1009.0
20260506085849 6 52 4.8 6.4 0.03 0.00 0.25 90 1009.0
20260506085351 6 61 3.2 6.4 0.03 0.00 0.23 91 1009.0
20260506084849 6 78 4.8 6.4 0.03 0.00 0.23 91 1009.0
20260506084349 6 74 3.2 4.8 0.03 0.00 0.23 91 1009.0
20260506083850 6 64 6.4 8.0 0.08 0.00 0.23 91 1009.0
20260506083349 6 52 6.4 8.0 0.03 0.00 0.20 92 1009.0
20260506082850 6 76 3.2 4.8 0.03 0.00 0.20 92 1009.0
20260506082352 6 66 4.8 6.4 0.00 0.00 0.23 92 1009.0
20260506081849 6 80 3.2 4.8 0.00 0.00 0.23 92 1009.0
20260506081351 6 64 1.6 3.2 0.00 0.00 0.23 92 1010.0
20260506080849 6 36 4.8 6.4 0.00 0.00 0.23 92 1009.0
20260506080349 6 42 4.8 6.4 0.05 0.00 0.20 92 1009.0
20260506073349 6 36 3.2 3.2 0.00 0.00 0.18 92 1010.0
20260506072850 6 17 0.0 1.6 0.00 0.00 0.18 92 1010.0
20260506072349 6 340 0.0 3.2 0.03 0.00 0.18 92 1010.0
20260506071849 6 53 3.2 6.4 0.00 0.00 0.18 92 1009.0
20260506071352 6 71 3.2 4.8 0.03 0.00 0.18 92 1009.0
20260506070849 6 251 0.0 1.6 0.05 0.00 0.15 91 1010.0
20260506070349 6 38 1.6 3.2 0.03 0.00 0.15 91 1009.0
20260506062352 6 71 1.6 3.2 0.00 0.00 0.15 90 1010.0
20260506061850 6 39 1.6 3.2 0.00 0.00 0.13 90 1010.0
20260506061349 6 96 3.2 6.4 0.00 0.00 0.13 90 1010.0
20260506060850 6 105 6.4 8.0 0.00 0.00 0.13 90 1010.0
20260506060349 6 124 1.6 3.2 0.00 0.00 0.13 90 1010.0
20260506051350 7 148 0.0 1.6 0.00 0.00 0.08 93 1011.0
20260506050849 7 126 3.2 3.2 0.00 0.00 0.08 93 1010.0
20260506050350 7 103 3.2 4.8 0.03 0.00 0.05 93 1010.0
20260506044850 7 0 0.0 0.0 0.00 0.00 0.05 93 1011.0
20260506044349 7 86 0.0 0.0 0.00 0.00 0.05 93 1011.0
20260506043849 7 43 3.2 4.8 0.00 0.00 0.03 93 1010.0
20260506043349 7 126 0.0 0.0 0.03 0.00 0.03 93 1011.0
20260506042849 7 104 0.0 0.0 0.05 0.00 0.03 93 1010.0
20260506042349 7 93 1.6 3.2 0.03 0.00 0.03 93 1010.0
20260506041850 7 79 0.0 1.6 0.00 0.00 0.00 93 1010.0
20260506041349 7 0 0.0 0.0 0.03 0.00 0.00 93 1010.0
20260506040849 7 358 0.0 0.0 0.03 0.00 0.00 93 1010.0
20260506040349 7 15 0.0 1.6 0.03 0.00 0.00 93 1010.0
20260506035851 7 321 0.0 1.6 0.03 0.00 1.07 93 1010.0
20260506035349 7 251 0.0 1.6 0.03 0.00 1.07 93 1010.0
20260506034849 7 0 0.0 0.0 0.03 0.00 1.04 93 1010.0
20260506034349 7 132 1.6 3.2 0.00 0.00 1.04 93 1010.0
20260506033849 7 148 1.6 3.2 0.08 0.00 1.04 93 1010.0
20260506033350 7 119 3.2 4.8 0.05 0.00 1.02 93 1011.0
20260506032851 7 113 1.6 4.8 0.10 0.00 1.02 93 1011.0
20260506032350 7 0 0.0 0.0 0.36 0.00 1.04 93 1011.0
20260506031849 7 204 0.0 3.2 0.15 0.00 0.99 93 1011.0
20260506031350 7 286 0.0 3.2 0.10 0.00 0.97 92 1011.0